Location: PSU-Greenbush Astrophysical Observatory
(37.5140°N, 94.9880°W)
Time: 18:10:22
(UTC-06:00)

deb Explorer IX - Pass Details

Date: 29 January 2020
Orbit: 549 x 1099 km, 38.8° (Epoch: 25 February)

Event Time Altitude Azimuth Distance (km) Brightness Sun altitude
Rises 22:10:24 0° 269° (W) 3,653 ? -53.1°
Enters shadow 22:12:00 - 270° (W) 3,092 ? -53.4°
Reaches altitude 10° 22:12:56 10° 271° (W) 2,771 - -53.6°
Maximum altitude 22:19:49 81° 358° (N) 1,087 - -54.8°
Drops below altitude 10° 22:27:10 10° 86° (E) 2,948 - -56.1°
Sets 22:29:57 0° 88° (E) 3,898 - -56.6°
